Location: Newark
(25.0000°N, 73.5000°E)
Time: 14:04:47
(UTC+00:00)

RS-15 - Pass Details

Date: 29 February 2020
Orbit: 1898 x 2146 km, 64.8° (Epoch: 06 April)

Event Time Altitude Azimuth Distance (km) Brightness Sun altitude
Rises 22:41:27 0° 340° (NNW) 5,336 10.2 -38.6°
Reaches altitude 10° 22:44:51 10° 345° (NNW) 4,360 9.8 -37.8°
Maximum altitude 22:55:46 53° 61° (ENE) 2,361 8.6 -35.4°
Drops below altitude 10° 23:07:07 10° 135° (SE) 4,544 10.3 -32.8°
Sets 23:10:42 0° 140° (SE) 5,573 10.8 -32.0°
